Terug naar catalogus

STARLINK-36261

ActiefCommunicatieVLEO
NORAD 67105·PAYLOAD·🇺🇸 United States

Gelanceerd Dec 15, 2025 vanaf Cape Canaveral Space Force Station

Loading…

Volgende Passages (komende 24 uur)

TLE

VersSource: CelesTrak SupGP

Epoch: Sep 15, 2026, 03:28 UTC

1 67105C 25299D   26258.14493056  .00022574  00000+0  81778-3 0  2582
2 67105  43.0029 179.1189 0001530 274.9413 323.9589 15.27561530    19

Volg STARLINK-36261 in realtime met AllMySat

Download on the App Store